Wind_Speed
33 33 32 32 32 32 32 32 32 32 32 32 32 32 33 33 32 32 33 34 34 34 34 34 34 34 34 34 34 34 34 35 35 35 36 36 37 37 37 37 37 37 37
34 34 34 33 33 32 32 33 33 33 33 33 33 33 33 33 33 33 34 34 35 35 34 34 34 34 34 34 34 35 35 35 35 35 35 36 36 36 37 37 37 38 38
35 35 35 35 34 34 34 34 34 34 33 33 33 33 33 33 33 34 34 35 35 35 34 34 34 34 34 34 35 35 35 35 35 35 36 35 35 35 36 38 39 39 40
37 36 36 36 35 35 34 34 34 33 33 33 33 34 34 33 34 35 35 35 34 34 34 34 34 34 34 35 35 35 35 35 35 36 36 36 36 36 36 38 39 40 40
37 36 35 35 35 35 34 34 34 33 33 33 33 34 34 34 34 34 34 34 34 34 34 34 34 34 34 35 35 35 35 36 36 36 37 37 37 37 37 37 38 39 41
36 35 34 34 34 34 33 33 33 33 33 33 33 33 33 33 34 34 34 34 34 34 34 34 34 34 35 35 35 36 36 37 37 38 38 39 39 39 39 39 39 39 40
34 33 33 33 33 32 32 33 33 32 32 32 32 33 33 33 33 33 33 34 34 34 34 34 34 35 35 35 36 37 37 37 38 39 39 39 40 40 41 41 41 41 41
33 33 33 32 32 31 31 32 32 31 31 31 32 32 33 32 32 32 33 33 33 34 34 35 35 35 36 36 37 38 38 38 39 39 40 41 41 42 42 43 43 43 43
32 32 32 31 31 31 31 31 31 31 31 31 31 31 31 31 31 32 32 33 34 34 35 35 35 36 36 37 37 37 38 39 40 40 41 42 43 44 44 44 45 46 45
32 32 31 31 30 30 30 30 30 30 30 31 31 31 31 31 31 31 32 33 34 34 34 35 36 36 37 37 37 38 39 40 41 42 42 43 44 45 45 46 47 48 48
30 30 30 30 30 30 30 30 30 29 29 29 30 30 30 30 30 31 32 33 34 35 35 35 36 37 37 37 38 39 40 41 41 42 43 44 45 46 47 48 49 50 51
29 29 29 29 29 29 30 29 29 29 29 29 29 29 30 30 30 31 32 34 34 35 35 36 36 36 37 38 39 40 41 41 42 44 45 46 47 47 48 50 51 53 54
29 29 29 28 29 29 29 29 29 29 29 29 30 30 30 31 31 32 33 34 35 35 35 36 36 37 38 39 40 41 42 43 44 45 46 48 48 49 51 53 54 56 57
29 29 28 28 29 29 29 29 29 29 29 30 30 30 31 31 32 33 33 34 34 35 36 37 37 38 39 40 41 42 43 44 46 47 48 49 50 52 54 55 57 58 59
29 28 28 28 28 28 28 29 29 29 30 30 30 31 31 32 33 33 34 34 35 36 37 38 38 39 40 41 42 44 45 46 47 49 50 51 53 55 56 58 59 60 61
29 29 29 28 28 28 28 29 29 30 30 30 30 31 32 33 33 34 34 35 36 36 37 38 39 40 41 42 44 45 46 47 49 50 51 53 54 56 58 59 61 62 63
30 29 29 29 29 28 28 29 30 30 30 31 31 32 32 33 34 34 35 35 37 38 38 39 40 41 42 44 45 47 48 49 50 51 53 54 56 58 60 61 62 63 64
31 30 29 29 29 29 29 29 30 30 30 31 31 32 32 33 34 34 35 36 37 38 39 40 41 42 44 45 46 48 49 50 51 53 55 56 58 60 61 62 63 63 64
31 30 30 30 29 30 30 30 30 30 30 31 31 32 33 33 34 34 35 36 37 38 40 41 42 43 44 46 47 48 50 51 53 55 57 58 60 61 62 63 63 64 64
32 31 30 30 30 30 30 30 30 30 31 31 31 32 33 33 34 35 36 37 38 39 41 42 43 44 45 46 48 50 52 53 55 57 58 60 61 62 63 64 65 65 65
31 30 30 30 30 30 30 30 30 31 31 32 32 33 33 34 35 36 37 38 39 41 42 43 43 44 46 48 50 52 53 55 57 58 60 61 62 62 64 65 66 67 67
30 30 30 30 30 30 30 30 31 31 32 32 32 33 34 35 36 37 38 39 40 41 42 43 44 46 48 50 51 53 55 56 58 60 61 61 62 63 65 66 67 67 68
31 30 30 30 30 30 30 31 31 32 32 32 33 34 35 36 37 38 39 40 41 42 43 44 46 47 49 51 52 54 56 58 60 61 61 61 62 63 65 66 67 67 66
31 31 31 31 31 31 32 31 31 32 32 33 34 35 36 37 38 39 40 41 42 43 44 46 47 48 50 52 53 55 57 59 60 61 61 62 63 64 65 66 66 65 64
31 31 31 31 32 32 32 32 32 33 34 35 35 36 37 38 38 40 41 42 43 44 45 47 48 49 51 53 55 57 59 60 61 61 62 63 65 65 65 64 63 62 61
31 30 31 32 32 32 32 33 33 34 35 36 36 37 38 39 40 41 42 43 44 45 46 48 49 51 53 55 57 59 60 61 62 62 63 64 65 64 63 62 61 59 58
Wind_Direction
260 263 266 268 270 272 275 277 279 280 281 282 283 283 284 285 286 286 286 287 288 287 287 288 288 288 289 289 289 289 289 289 290 291 292 293 293 293 293 292 292 291 291
260 263 265 267 269 271 274 276 278 279 280 281 282 283 284 284 285 285 285 285 287 287 287 287 287 288 288 288 288 289 289 290 290 291 291 293 294 294 294 293 293 293 292
260 263 265 267 269 271 273 275 276 278 279 280 281 282 283 284 284 284 285 286 287 286 286 287 287 287 287 288 288 289 289 290 291 292 292 292 292 294 294 294 294 294 294
260 262 264 267 269 270 272 273 275 277 278 279 280 281 282 283 283 284 286 286 286 285 285 286 287 287 287 288 289 289 290 291 291 292 293 293 293 294 294 295 295 295 295
260 262 263 265 267 269 271 273 275 276 277 278 278 279 281 282 283 285 285 285 284 284 285 286 286 286 287 288 288 289 289 291 291 292 293 294 294 295 295 296 296 296 296
260 262 263 265 266 268 270 272 273 274 275 277 277 279 280 281 282 283 283 283 283 284 285 286 286 286 287 288 287 288 290 290 291 293 294 295 295 295 295 295 295 296 297
260 262 264 265 266 268 270 272 273 274 275 276 277 278 279 280 281 281 281 282 283 284 284 285 285 286 287 288 288 289 290 290 292 294 295 295 295 295 295 295 295 295 296
259 261 263 264 266 268 270 272 273 274 275 276 276 277 278 279 279 280 281 282 283 283 284 284 285 286 287 288 289 289 289 291 293 294 295 296 296 296 296 296 296 295 296
258 260 262 264 266 268 270 271 273 274 275 276 276 277 277 278 278 279 281 282 282 283 284 285 286 286 287 288 289 290 290 292 293 294 295 296 296 297 297 297 297 297 297
258 260 262 264 266 268 270 271 273 274 275 276 276 276 276 276 277 279 280 280 282 283 284 285 286 286 287 288 289 290 291 292 294 295 296 297 297 297 297 297 298 298 298
257 259 262 263 265 267 269 271 272 273 274 275 275 276 276 276 277 278 279 280 282 283 284 285 286 286 286 287 288 290 291 293 294 295 296 297 297 298 297 297 298 298 298
256 258 260 263 265 267 268 269 271 273 274 274 275 276 276 276 277 278 279 280 282 283 284 285 285 286 286 287 289 290 292 294 295 296 297 297 298 298 298 298 299 299 299
256 257 260 262 264 266 267 269 271 272 273 274 275 276 276 276 277 278 280 281 282 283 284 284 285 285 286 288 290 291 293 294 295 297 297 298 298 299 299 299 299 299 299
255 257 259 260 263 265 267 269 270 272 273 274 275 276 276 276 277 279 280 281 281 282 283 283 284 286 287 289 290 291 293 295 296 297 298 298 299 299 299 299 299 300 300
254 256 258 259 262 264 266 268 270 272 273 274 275 275 275 276 278 279 280 280 281 282 283 284 286 287 288 289 291 292 294 295 297 298 298 298 299 299 299 300 300 300 300
254 255 258 260 262 264 267 269 271 272 273 273 273 274 275 277 278 279 280 280 282 283 284 285 286 288 289 290 292 293 295 296 297 298 298 298 299 299 300 300 300 301 301
253 255 258 260 262 265 267 269 270 272 273 273 274 275 276 278 279 280 280 282 283 284 285 286 287 288 289 291 292 294 295 296 297 298 298 299 299 300 300 300 301 301 301
252 255 258 261 262 265 267 269 271 272 273 273 274 275 277 278 279 280 281 282 283 285 286 286 287 288 290 291 293 294 296 296 297 298 299 300 300 300 300 300 301 301 301
253 255 257 259 262 264 266 268 270 272 273 274 275 277 278 279 280 281 282 284 285 286 286 287 288 289 291 292 293 294 296 297 298 300 301 301 301 301 301 301 301 301 301
252 253 255 258 261 264 266 268 270 271 273 274 275 277 278 280 281 282 284 285 286 286 287 289 290 291 292 293 294 295 297 298 300 301 301 301 301 301 301 301 302 302 302
251 253 255 258 261 264 266 268 270 271 273 274 276 278 279 280 282 283 285 286 287 288 289 290 291 292 293 294 295 297 298 300 300 301 301 301 301 301 302 302 302 302 303
251 253 255 258 261 264 267 269 271 272 273 275 276 278 280 282 284 285 287 288 289 290 291 292 293 294 294 296 297 298 299 300 301 302 302 302 302 302 303 303 303 303 303
249 252 255 258 261 264 267 269 271 273 274 275 277 279 281 283 285 286 288 289 290 292 292 293 294 295 296 297 298 299 300 301 302 302 303 303 303 303 304 304 304 304 304
250 253 256 259 262 264 267 269 271 274 275 277 279 281 283 284 286 288 289 291 292 293 294 294 295 296 297 298 299 300 301 302 303 303 304 304 304 304 305 304 304 304 304
251 253 257 260 262 265 267 269 271 274 276 278 280 282 284 285 287 289 290 291 292 293 294 295 296 297 298 299 300 301 302 303 303 303 304 304 305 305 305 305 305 305 305
252 255 258 261 263 264 267 269 272 275 277 279 281 283 285 286 288 290 291 292 293 294 295 296 297 298 299 300 301 302 303 304 304 305 305 306 306 305 305 305 305 305 305
Height
5814 5815 5816 5816 5817 5817 5817 5816 5816 5815 5814 5813 5812 5811 5810 5808 5807 5805 5803 5801 5799 5797 5795 5793 5791 5789 5787 5785 5782 5780 5778 5775 5772 5769 5766 5763 5760 5756 5753 5750 5747 5744 5741
5806 5807 5808 5808 5809 5809 5809 5809 5808 5807 5807 5806 5804 5803 5802 5801 5799 5798 5796 5793 5791 5790 5788 5786 5784 5782 5779 5777 5775 5772 5770 5767 5764 5762 5759 5756 5753 5749 5745 5742 5739 5736 5733
5799 5799 5800 5800 5801 5801 5801 5801 5800 5800 5799 5798 5797 5795 5794 5793 5792 5790 5788 5786 5784 5782 5780 5778 5776 5774 5772 5769 5767 5764 5762 5759 5757 5754 5751 5748 5745 5742 5738 5734 5731 5727 5724
5790 5791 5792 5792 5793 5793 5793 5793 5792 5792 5791 5790 5789 5787 5786 5785 5784 5782 5780 5778 5776 5774 5772 5770 5768 5766 5764 5762 5759 5757 5754 5752 5749 5746 5743 5740 5737 5734 5731 5727 5723 5719 5715
5781 5782 5783 5784 5784 5784 5784 5784 5784 5783 5783 5782 5781 5780 5779 5777 5775 5774 5772 5770 5768 5766 5765 5763 5760 5758 5756 5754 5752 5749 5747 5744 5741 5738 5735 5732 5729 5726 5723 5719 5715 5711 5706
5772 5773 5774 5775 5776 5776 5776 5776 5775 5775 5774 5773 5773 5772 5770 5769 5767 5766 5764 5762 5760 5759 5757 5755 5753 5751 5748 5746 5744 5741 5739 5736 5733 5730 5727 5724 5721 5717 5714 5711 5707 5703 5698
5763 5764 5765 5766 5767 5767 5767 5767 5767 5767 5766 5765 5764 5763 5762 5761 5759 5758 5756 5754 5753 5751 5749 5747 5745 5743 5741 5738 5736 5733 5731 5728 5725 5721 5718 5715 5712 5708 5705 5701 5698 5694 5690
5755 5756 5757 5758 5758 5758 5759 5759 5758 5758 5757 5757 5756 5755 5754 5752 5751 5750 5748 5746 5745 5743 5741 5739 5737 5735 5733 5730 5728 5725 5722 5719 5716 5713 5709 5706 5702 5699 5695 5691 5688 5684 5681
5746 5747 5748 5749 5749 5750 5750 5750 5750 5750 5749 5748 5747 5746 5745 5744 5743 5742 5740 5738 5737 5735 5733 5731 5729 5727 5724 5722 5719 5716 5714 5711 5707 5704 5700 5697 5693 5689 5685 5681 5677 5673 5669
5737 5738 5739 5740 5741 5741 5741 5741 5741 5741 5740 5739 5739 5738 5737 5736 5735 5733 5732 5730 5728 5726 5725 5723 5720 5718 5716 5713 5710 5708 5705 5702 5698 5695 5691 5687 5683 5679 5674 5670 5666 5661 5657
5728 5730 5731 5731 5732 5733 5733 5733 5733 5732 5732 5731 5730 5730 5729 5727 5726 5725 5723 5722 5720 5718 5716 5714 5712 5709 5707 5704 5702 5699 5696 5692 5689 5685 5681 5677 5673 5668 5664 5659 5654 5649 5644
5720 5721 5722 5723 5723 5724 5724 5724 5724 5724 5723 5723 5722 5721 5720 5719 5718 5717 5715 5713 5711 5709 5707 5705 5703 5701 5698 5695 5693 5690 5686 5683 5679 5675 5671 5667 5662 5658 5653 5648 5642 5637 5632
5711 5713 5714 5714 5715 5715 5715 5716 5715 5715 5715 5714 5713 5713 5712 5711 5709 5708 5706 5704 5702 5700 5698 5696 5694 5691 5689 5686 5683 5680 5676 5673 5669 5665 5660 5656 5651 5646 5641 5635 5630 5624 5618
5703 5704 5705 5706 5706 5707 5707 5707 5707 5706 5706 5705 5705 5704 5703 5702 5700 5699 5697 5695 5693 5691 5689 5687 5685 5682 5679 5676 5673 5670 5666 5662 5658 5653 5649 5644 5639 5634 5628 5622 5616 5610 5604
5694 5696 5697 5697 5698 5698 5698 5698 5698 5698 5697 5697 5696 5695 5694 5693 5691 5690 5688 5686 5684 5682 5680 5678 5675 5672 5669 5666 5663 5659 5655 5651 5647 5642 5637 5632 5626 5620 5614 5608 5602 5595 5589
5685 5687 5688 5689 5689 5690 5690 5690 5689 5689 5688 5688 5687 5686 5685 5683 5682 5681 5679 5677 5675 5673 5670 5668 5665 5662 5659 5656 5652 5648 5644 5640 5635 5630 5625 5619 5613 5607 5600 5594 5587 5580 5572
5676 5678 5679 5680 5680 5681 5681 5681 5680 5680 5679 5679 5677 5677 5675 5674 5673 5671 5669 5668 5665 5663 5661 5658 5655 5652 5649 5645 5641 5637 5632 5628 5623 5617 5612 5606 5599 5592 5586 5579 5572 5564 5556
5667 5669 5670 5671 5671 5672 5672 5672 5671 5671 5670 5669 5668 5667 5666 5665 5663 5662 5660 5658 5655 5653 5650 5648 5644 5641 5637 5633 5629 5625 5620 5615 5610 5604 5598 5592 5585 5577 5570 5564 5557 5549 5541
5657 5659 5660 5661 5662 5663 5663 5663 5662 5662 5661 5660 5659 5658 5657 5655 5654 5652 5650 5648 5645 5643 5640 5637 5633 5630 5626 5621 5617 5612 5608 5603 5597 5591 5584 5577 5570 5562 5555 5548 5541 5534 5526
5647 5649 5651 5652 5653 5654 5654 5654 5653 5653 5652 5651 5650 5649 5647 5646 5644 5642 5640 5638 5635 5632 5629 5626 5622 5618 5614 5610 5605 5600 5595 5590 5584 5577 5570 5562 5554 5547 5538 5531 5524 5517 5510
5638 5640 5641 5643 5644 5644 5644 5644 5644 5644 5643 5642 5640 5639 5638 5636 5634 5632 5630 5627 5624 5621 5618 5615 5611 5607 5602 5598 5592 5587 5581 5576 5570 5563 5555 5547 5539 5531 5523 5515 5507 5499 5492
5629 5630 5632 5634 5634 5635 5635 5635 5635 5634 5633 5632 5631 5629 5628 5626 5624 5622 5619 5616 5613 5610 5607 5603 5599 5594 5590 5585 5579 5573 5567 5561 5555 5548 5540 5532 5524 5515 5507 5498 5490 5482 5474
5619 5621 5623 5624 5625 5625 5625 5625 5625 5624 5623 5622 5621 5619 5618 5616 5613 5611 5608 5605 5602 5599 5595 5591 5587 5582 5577 5571 5565 5559 5553 5546 5539 5532 5524 5516 5508 5499 5491 5482 5473 5465 5456
5610 5612 5613 5614 5615 5615 5616 5615 5615 5614 5613 5612 5611 5609 5607 5605 5603 5600 5597 5594 5591 5587 5583 5579 5574 5569 5564 5558 5552 5545 5538 5531 5523 5516 5508 5500 5492 5483 5474 5466 5457 5448 5439
5601 5602 5604 5605 5605 5605 5605 5605 5605 5604 5603 5602 5600 5599 5596 5594 5592 5589 5586 5582 5579 5574 5571 5566 5561 5556 5551 5544 5538 5531 5524 5516 5509 5501 5493 5485 5476 5467 5458 5449 5440 5432 5424
5591 5593 5594 5595 5595 5595 5595 5595 5595 5594 5593 5592 5590 5588 5586 5583 5580 5577 5574 5570 5566 5562 5557 5552 5548 5542 5536 5530 5523 5516 5508 5500 5492 5485 5477 5468 5459 5450 5442 5433 5426 5417 5410